Simultaneous Nadir Overpasses (SNOs) Predictions

Prediction of SNOs between GOES-16 and AQUA Satellite Orbit:

Table of predicted SNOs for the next 14.0 days since TLE Epoch: 6/14/2024
Index Date Time (GOES-16) GOES-16 Lat,Lon AQUA Lat,Lon Distance(km) Time Diff (sec)
1 06/16/2024 07:09:17 0.03, -75.21 -0.02, -75.04 18.87 80
2 06/18/2024 06:52:41 0.02, -75.22 -0.86, -70.98 481.29 80
3 06/18/2024 19:15:37 -0.02, -75.22 -0.19, -75.89 76.67 80
4 06/20/2024 18:56:21 -0.01, -75.23 0.70, -71.83 386.27 80
5 06/21/2024 07:19:08 0.01, -75.24 0.30, -76.70 166.11 80
6 06/23/2024 06:59:51 0.00, -75.25 -0.58, -72.64 297.36 80
7 06/23/2024 19:22:45 -0.01, -75.25 -0.50, -77.54 260.32 80
8 06/25/2024 19:03:28 -0.00, -75.27 0.38, -73.47 204.34 80
9 06/26/2024 07:26:13 0.00, -75.28 0.67, -78.33 347.46 80
10 06/28/2024 07:06:54 0.00, -75.31 -0.20, -74.26 118.64 80
11 06/28/2024 19:29:49 -0.01, -75.31 -0.85, -79.16 438.39 80
